Weather in Perpignan

France     42˚41′59″N   2˚53′10″E
temp.,
°C
wind,
m/s
gust,
m/s
humid.,
%
clouds,
%
prec.,
mm/h
press.,
hPa
HPBL,
m
3 december, thu
thu301:00+8˚nw11186732 0.0 10151274
04:00+8˚nw916630 0.0 10141177
07:00+8˚nw614606 0.0 1013835
10:00+8˚w245244 0.0 1011402
13:00+11˚sse454622 0.0 1009538
16:00+12˚ssw234073 0.0 1005552
19:00+11˚sse346187 0.0 1003265
22:00+10˚wsw3360100 0.0 1000258
4 december, fri
fri401:00+9˚wsw4556100 0.0 996237
04:00+8˚w125275 0.0 992116
07:00+8˚nw9156838 0.0 992855
10:00+8˚w486767 0.0 992741
13:00+7˚sw117483 0.9 992603
16:00+7˚ssw3378100 3.2 991359
19:00+7˚sw4569100 3.3 992383
22:00+7˚wnw3370100 0.2 994201
5 december, sat
sat501:00+7˚wnw346788 0.2 995281
04:00+6˚wnw346854 0.0 996336
07:00+6˚wnw226844 0.0 996187
10:00+7˚nw23630 0.0 997346
13:00+8˚se34580 0.0 996471
16:00+10˚se79600 0.0 9961191
19:00+9˚sw345347 0.0 998338
22:00+8˚nw596786 0.0 998508
6 december, sun
sun601:00+8˚nw396793 0.0 999657
04:00+7˚wnw386695 0.0 999485
07:00+7˚nw597386 0.0 1000673
10:00+8˚wnw366764 0.1 1001404
13:00+10˚wnw585570 0.1 1000871
16:00+11˚nw6115282 0.0 10001633
19:00+9˚wnw7155883 0.1 10021474
22:00+8˚wnw5115884 0.0 10031109
7 december, mon
mon701:00+7˚wnw8157091 0.1 10041363
04:00+7˚wnw6157584 0.4 10051192
07:00+7˚wnw7146955 0.4 10061157
10:00+7˚nw9147647 0.4 10071190
13:00+8˚nw11176561 0.9 10081412
16:00+9˚nw1016590 0.0 10091511
19:00+8˚nw916680 0.0 10111201
22:00+7˚nw612700 0.0 1012923